,

(GMT )
Charleville

Weather History for LFQV - June, 2014

Change the Weather History Date:

Monday, June 23, 2014

  Actual Average Record
Temperature  
Mean Temperature 60 °F -  
Max Temperature 75 °F - - ()
Min Temperature 45 °F - - ()
Degree Days  
Heating Degree Days 5    
Growing Degree Days 10 (Base 50)    
Moisture  
Dew Point 48 °F    
Average Humidity 49    
Maximum Humidity 91    
Minimum Humidity 28    
Precipitation  
Precipitation 0.00 in - - ()
Sea Level Pressure  
Sea Level Pressure 30.15 in    
Wind  
Wind Speed 5 mph ()    
Max Wind Speed 14 mph    
Max Gust Speed -    
Visibility 11.1 miles    
Events      
T = Trace of Precipitation, MM = Missing Value Source: Averaged Metar Reports

Daily Weather History Graph

Daily Weather History Graph

Search for Another Location

Airport or City:

Trip Planner

Search our weather history database for the weather conditions in past years. The results will help you decide how hot, cold, wet, or windy it might be!

Date:

Astronomy

Jun. 23, 2014 Rise Set
Actual Time 5:33 AM CEST 9:53 PM CEST
Civil Twilight 4:49 AM CEST 10:37 PM CEST
Nautical Twilight 3:44 AM CEST 11:42 PM CEST
Astronomical Twilight 2:16 AM CEST 1:11 AM CEST
Moon 3:08 AM CEST (6/23) 6:03 PM CEST (6/23)
Length of Visible Light 17h 48m
Length of Day
16h 19m
Waning Crescent, 15% of the Moon is Illuminated
Jun 23
Waning Crescent
Jun 27
New
Jul 5
First Quarter
Jul 12
Full
Jul 19
Last Quarter

Hourly Weather History & Observations

Time (CEST) Temp. Dew Point Humidity Pressure Visibility Wind Dir Wind Speed Gust Speed Precip Events Conditions
12:00 AM 58 °F 47 °F 57% 30.19 in 12 mi West 4.6 mph - -  
1:00 AM 54 °F 47 °F 72% 30.19 in 12 mi SW 3.5 mph - -  
2:00 AM 53 °F 46 °F 71% 30.20 in 12 mi NE 2.3 mph - -  
3:00 AM 56 °F 48 °F 66% 30.19 in 12 mi WNW 2.3 mph - -  
4:00 AM 53 °F 47 °F 73% 30.20 in 7 mi ESE 2.3 mph - -  
5:00 AM 47 °F 43 °F 80% 30.19 in 12 mi WSW 1.2 mph - -  
6:00 AM 46 °F 44 °F 91% 30.19 in 7 mi West 1.2 mph - -   Clear
7:00 AM 54 °F 49 °F 79% 30.21 in 9 mi NNE 4.6 mph - -   Clear
8:00 AM 60 °F 49 °F 59% 30.20 in 6 mi East 4.6 mph - -   Clear
9:00 AM 64 °F 50 °F 49% 30.19 in 11 mi ENE 6.9 mph - -   Clear
10:00 AM 67 °F 46 °F 36% 30.18 in 12 mi NE 9.2 mph - -   Clear
11:00 AM 68 °F 42 °F 28% 30.16 in 12 mi ENE 13.8 mph - -   Clear
12:00 PM 70 °F 46 °F 30% 30.15 in 12 mi ENE 11.5 mph - -   Clear
1:00 PM 72 °F 46 °F 28% 30.14 in 12 mi NE 11.5 mph - -   Clear
2:00 PM 73 °F 48 °F 29% 30.13 in 12 mi NE 5.8 mph - -   Clear
3:00 PM 74 °F 48 °F 29% 30.12 in 12 mi NNE 8.1 mph - -   Clear
4:00 PM 75 °F 49 °F 29% 30.10 in 12 mi NE 8.1 mph - -   Clear
5:00 PM 75 °F 52 °F 33% 30.09 in 12 mi NE 6.9 mph - -  
6:00 PM 74 °F 49 °F 30% 30.08 in 12 mi NE 8.1 mph - -   Clear
7:00 PM 72 °F 49 °F 33% 30.08 in 12 mi ENE 8.1 mph - -   Clear
8:00 PM 71 °F 51 °F 37% 30.07 in 12 mi NE 8.1 mph - -  
9:00 PM 68 °F 49 °F 41% 30.08 in 12 mi North 3.5 mph - -  
10:00 PM 64 °F 49 °F 48% 30.09 in 12 mi West 3.5 mph - -